Terug naar catalogus

STARLINK-32957

ActiefCommunicatieVLEO
NORAD 63124·PAYLOAD·🇺🇸 United States

Gelanceerd Feb 27, 2025 vanaf Cape Canaveral Space Force Station

Loading…

Volgende Passages (komende 24 uur)

TLE

VersSource: CelesTrak SupGP

Epoch: Sep 14, 2026, 21:00 UTC

1 63124C 25039W   26257.87548611  .00050013  00000+0  18124-2 0  2570
2 63124  43.0016  24.5251 0001529 279.4714 253.1568 15.27536759    13

Volg STARLINK-32957 in realtime met AllMySat

Download on the App Store